Location: High Cliff State Park
(44.1557°N, 88.2948°W)
Time: 23:13:52
(UTC-05:00)

Amateur Radio Satellites - All Passes

Search period start: 23 July 2014 22:43
Search period end: 24 July 2014 22:43
Location: High Cliff State Park, 44.1557°N, 88.2948°W

Satellite Date Start Highest point End Downlink Frequencies (MHz)
Time Altitude Azimuth
MaSat-1 23 Jul 22:48:41 22:52:35 71° 114° (ESE) 22:57:13 437.345 MHz
FUNcube-1 23 Jul 23:26:09 23:29:41 23° 266° (W) 23:33:10 145.950 - 145.970 MHz USB
UOSAT-12 23 Jul 23:35:41 23:39:45 27° 42° (NE) 23:43:46 437.025 FM, 437.400 FM
AO-40 24 Jul 00:07:07 05:40:34 36° 181° (S) 10:20:21 Beacon 2401.320
Lituanica SAT-1 24 Jul 00:17:47 00:19:42 29° 142° (SE) 00:21:38 437.275 MHz beacon
SO-50 24 Jul 00:24:52 00:27:20 14° 251° (WSW) 00:29:50 436.795 FM
MaSat-1 24 Jul 00:27:50 00:30:39 17° 317° (NW) 00:33:42 437.345 MHz
RS-15 24 Jul 00:34:04 00:44:37 54° 247° (WSW) 00:55:34 29.354 - 29.394 USB, Beacon 29.352 USB
PCSat 24 Jul 01:08:35 01:12:29 21° 106° (ESE) 01:16:24 145.825 MHz
Oscar 19 24 Jul 01:11:08 01:13:24 13° 88° (E) 01:15:39 437.125 CW, 437.150 USB
UOSAT-12 24 Jul 01:15:34 01:20:08 48° 241° (WSW) 01:24:37 437.025 FM, 437.400 FM
Oscar 16 24 Jul 01:37:01 01:41:09 24° 93° (E) 01:45:17 437.025 USB, Beacon 2401.1428
ITAMSAT 1 24 Jul 01:47:35 01:49:54 13° 88° (E) 01:52:12 435.822 SSB
Lituanica SAT-1 24 Jul 01:50:43 01:52:32 23° 340° (NNW) 01:54:21 437.275 MHz beacon
ISS 24 Jul 01:56:13 01:59:28 52° 143° (SE) 02:02:45 145.800 FM
AO-27 24 Jul 02:04:11 02:07:52 19° 92° (E) 02:11:32 436.795 MHz FM
OPAL 24 Jul 02:07:01 02:07:51 10° 53° (NE) 02:08:42 ?
Uribyol 2 24 Jul 02:07:14 02:11:09 21° 93° (E) 02:15:01 436.500 FM
AO-Echo 24 Jul 02:10:33 02:14:35 23° 92° (E) 02:18:29 ?
Sapphire 24 Jul 02:15:59 02:21:20 69° 118° (ESE) 02:26:44 437.095 MHz 1200 baud AX-25 AFSK
JAS-1B 24 Jul 02:41:15 02:49:55 36° 91° (E) 02:57:36 435.800 - 435.900 CW/SSB
Oscar 19 24 Jul 02:48:11 02:53:22 82° 286° (WNW) 02:58:32 437.125 CW, 437.150 USB
PCSat 24 Jul 02:50:04 02:55:25 62° 305° (NW) 03:00:49 145.825 MHz
TMSAT-1 24 Jul 03:13:24 03:17:46 26° 94° (E) 03:22:07 436.925 FM
Oscar 16 24 Jul 03:15:49 03:20:42 45° 291° (WNW) 03:25:36 437.025 USB, Beacon 2401.1428
ITAMSAT 1 24 Jul 03:24:50 03:30:02 82° 286° (WNW) 03:35:12 435.822 SSB
Lituanica SAT-1 24 Jul 03:24:58 03:25:53 12° 359° (N) 03:26:47 437.275 MHz beacon
ISS 24 Jul 03:33:14 03:36:19 33° 342° (NNW) 03:39:25 145.800 FM
Gurwin Techsat 1B 24 Jul 03:33:36 03:38:49 53° 100° (E) 03:43:58 435.225 FM
OPAL 24 Jul 03:40:56 03:45:51 70° 71° (ENE) 03:50:47 ?
AO-27 24 Jul 03:42:40 03:47:45 56° 289° (WNW) 03:52:48 436.795 MHz FM
Uribyol 2 24 Jul 03:45:54 03:50:54 51° 290° (WNW) 03:55:52 436.500 FM
AO-Echo 24 Jul 03:48:39 03:53:36 47° 290° (WNW) 03:58:23 ?
Sapphire 24 Jul 04:01:01 04:05:17 23° 318° (NW) 04:09:34 437.095 MHz 1200 baud AX-25 AFSK
Uosat F 24 Jul 04:03:13 04:06:21 16° 91° (E) 04:09:28 435.120 FM
Oscar 19 24 Jul 04:29:51 04:31:54 12° 304° (WNW) 04:33:57 437.125 CW, 437.150 USB
JAS-1B 24 Jul 04:31:19 04:40:53 62° 293° (WNW) 04:49:19 435.800 - 435.900 CW/SSB
PCSat 24 Jul 04:37:04 04:39:58 14° 326° (NNW) 04:42:54 145.825 MHz
TMSAT-1 24 Jul 04:52:51 04:57:52 44° 291° (WNW) 05:02:50 436.925 FM
Lituanica SAT-1 24 Jul 04:57:33 04:59:15 20° 18° (NNE) 05:00:57 437.275 MHz beacon
AO-7 24 Jul 04:58:03 05:06:07 50° 101° (E) 05:14:05 29.400 - 29.500 MHz
ITAMSAT 1 24 Jul 05:06:38 05:08:42 12° 304° (NW) 05:10:46 435.822 SSB
ISS 24 Jul 05:11:00 05:13:43 22° 2° (N) 05:16:26 145.800 FM
Gurwin Techsat 1B 24 Jul 05:14:20 05:18:25 23° 298° (WNW) 05:22:30 435.225 FM
OPAL 24 Jul 05:22:35 05:25:14 14° 268° (W) 05:27:55 ?
Uosat F 24 Jul 05:40:36 05:45:35 63° 288° (WNW) 05:50:31 435.120 FM
STRAND 1 24 Jul 05:55:33 06:00:05 32° 66° (ENE) 06:04:38 ?
JAS-1B 24 Jul 06:23:26 06:29:19 18° 315° (NW) 06:34:55 435.800 - 435.900 CW/SSB
Lituanica SAT-1 24 Jul 06:30:04 06:32:09 43° 216° (SW) 06:34:13 437.275 MHz beacon
Oscar 10/S400 24 Jul 06:36:46 07:51:00 29° 246° (WSW) 11:12:46 145.825 - 145.975 CW/USB, Beacon 145.810 USB
ISS 24 Jul 06:47:50 06:51:03 40° 22° (NNE) 06:54:15 145.800 FM
Hamsat 24 Jul 06:48:08 06:52:23 60° 100° (E) 06:56:38 145.90 MHz
AO-7 24 Jul 06:51:07 06:58:45 42° 301° (WNW) 07:06:21 29.400 - 29.500 MHz
KITSAT 1 24 Jul 06:56:06 07:03:38 45° 111° (ESE) 07:11:11 435.175 FM
MaSat-1 24 Jul 07:05:28 07:10:17 33° 52° (NE) 07:15:00 437.345 MHz
JAS-2 24 Jul 07:05:49 07:12:05 61° 100° (E) 07:17:36 435.800 - 435.900 CW/SSB, 435.910 FM
STRAND 1 24 Jul 07:34:33 07:39:13 34° 263° (W) 07:43:54 ?
SO-67 24 Jul 07:46:13 07:49:32 40° 98° (E) 07:52:49 435.3500 MHz FM
ISS 24 Jul 08:24:37 08:27:45 36° 220° (SW) 08:30:52 145.800 FM
Hamsat 24 Jul 08:25:34 08:27:53 15° 297° (WNW) 08:30:13 145.90 MHz
MaSat-1 24 Jul 08:42:46 08:47:46 41° 251° (WSW) 08:52:34 437.345 MHz
AO-7 24 Jul 08:47:26 08:49:18 11° 324° (NW) 08:51:10 29.400 - 29.500 MHz
KITSAT 1 24 Jul 08:51:11 08:58:59 50° 312° (NW) 09:06:50 435.175 FM
JAS-2 24 Jul 08:51:44 08:56:34 23° 302° (WNW) 09:00:59 435.800 - 435.900 CW/SSB, 435.910 FM
Sapphire 24 Jul 09:20:09 09:23:35 17° 37° (NE) 09:27:01 437.095 MHz 1200 baud AX-25 AFSK
SO-67 24 Jul 09:20:30 09:22:16 14° 295° (WNW) 09:24:02 435.3500 MHz FM
Saudisat 1A 24 Jul 09:22:31 09:26:56 82° 124° (ESE) 09:31:23 436.775 MHz
Oscar 11 24 Jul 09:31:36 09:33:36 13° 90° (E) 09:35:36 145.825 FM, Beacon 2401.500 USB
HO-68 24 Jul 09:31:51 09:38:36 43° 99° (E) 09:45:17 435.675 MHz FM
PCSat 24 Jul 09:53:34 09:58:11 27° 45° (NE) 10:02:46 145.825 MHz
UKube-1 24 Jul 10:14:54 10:19:16 72° 103° (ESE) 10:23:36 145.840 MHz, 145.915 MHz
KITSAT 1 24 Jul 10:51:09 10:56:37 19° 339° (NNW) 11:02:06 435.175 FM
Sapphire 24 Jul 11:02:30 11:07:57 76° 58° (ENE) 11:13:22 437.095 MHz 1200 baud AX-25 AFSK
Saudisat 1A 24 Jul 11:04:06 11:07:05 17° 323° (NW) 11:10:05 436.775 MHz
Oscar 11 24 Jul 11:05:55 11:10:12 62° 286° (WNW) 11:14:28 145.825 FM, Beacon 2401.500 USB
FUNcube-1 24 Jul 11:12:45 11:16:52 57° 100° (E) 11:20:59 145.950 - 145.970 MHz USB
HO-68 24 Jul 11:19:41 11:26:15 41° 297° (WNW) 11:32:48 435.675 MHz FM
PCSat 24 Jul 11:36:37 11:41:56 55° 245° (WSW) 11:47:12 145.825 MHz
JAS-1B 24 Jul 11:45:01 11:46:27 10° 35° (NE) 11:47:53 435.800 - 435.900 CW/SSB
UKube-1 24 Jul 11:52:53 11:54:54 13° 300° (WNW) 11:56:55 145.840 MHz, 145.915 MHz
Oscar 19 24 Jul 12:28:54 12:32:51 23° 63° (ENE) 12:36:49 437.125 CW, 437.150 USB
Sapphire 24 Jul 12:47:27 12:50:43 16° 256° (WSW) 12:53:58 437.095 MHz 1200 baud AX-25 AFSK
FUNcube-1 24 Jul 12:50:37 12:52:50 14° 298° (WNW) 12:55:02 145.950 - 145.970 MHz USB
RS-15 24 Jul 12:50:38 12:58:25 23° 101° (E) 13:06:04 29.354 - 29.394 USB, Beacon 29.352 USB
KITSAT 1 24 Jul 12:51:17 12:55:51 16° 10° (N) 13:00:25 435.175 FM
Oscar 16 24 Jul 12:55:22 13:00:07 40° 68° (ENE) 13:04:53 437.025 USB, Beacon 2401.1428
SO-50 24 Jul 13:00:50 13:03:40 17° 110° (ESE) 13:06:33 436.795 FM
ITAMSAT 1 24 Jul 13:06:18 13:10:29 25° 63° (ENE) 13:14:40 435.822 SSB
Gurwin Techsat 1B 24 Jul 13:19:31 13:22:20 15° 57° (ENE) 13:25:08 435.225 FM
AO-27 24 Jul 13:23:29 13:28:11 35° 67° (ENE) 13:32:54 436.795 MHz FM
AO-Echo 24 Jul 13:24:21 13:29:07 36° 67° (ENE) 13:33:57 ?
JAS-1B 24 Jul 13:26:09 13:33:57 37° 58° (ENE) 13:42:31 435.800 - 435.900 CW/SSB
Uribyol 2 24 Jul 13:26:20 13:31:07 38° 68° (ENE) 13:35:54 436.500 FM
Oscar 19 24 Jul 14:06:56 14:11:52 49° 261° (W) 14:16:51 437.125 CW, 437.150 USB
AO-7 24 Jul 14:09:41 14:15:10 20° 47° (NE) 14:20:40 29.400 - 29.500 MHz
Oscar 16 24 Jul 14:35:19 14:39:35 26° 266° (W) 14:43:53 437.025 USB, Beacon 2401.1428
TMSAT-1 24 Jul 14:35:28 14:40:30 46° 69° (ENE) 14:45:34 436.925 FM
SO-50 24 Jul 14:39:19 14:43:44 61° 308° (NW) 14:48:17 436.795 FM
ITAMSAT 1 24 Jul 14:44:41 14:49:42 47° 261° (W) 14:54:44 435.822 SSB
KITSAT 1 24 Jul 14:47:07 14:54:16 33° 38° (NE) 15:01:22 435.175 FM
Gurwin Techsat 1B 24 Jul 14:56:14 15:01:33 87° 256° (WSW) 15:06:55 435.225 FM
RS-15 24 Jul 14:58:00 15:09:09 86° 122° (ESE) 15:20:07 29.354 - 29.394 USB, Beacon 29.352 USB
AO-27 24 Jul 15:03:04 15:07:42 32° 264° (W) 15:12:22 436.795 MHz FM
AO-Echo 24 Jul 15:03:09 15:07:52 33° 265° (W) 15:12:39 ?
Uribyol 2 24 Jul 15:06:11 15:10:39 29° 265° (W) 15:15:10 436.500 FM
JAS-1B 24 Jul 15:15:15 15:23:45 66° 260° (W) 15:33:30 435.800 - 435.900 CW/SSB
Uosat F 24 Jul 15:17:35 15:21:50 28° 65° (ENE) 15:26:05 435.120 FM
UOSAT-12 24 Jul 15:28:08 15:32:19 36° 116° (ESE) 15:36:35 437.025 FM, 437.400 FM
OPAL 24 Jul 15:50:31 15:53:31 16° 93° (E) 15:56:31 ?
AO-7 24 Jul 15:58:18 16:06:37 75° 68° (ENE) 16:14:59 29.400 - 29.500 MHz
Saudisat 1A 24 Jul 16:09:17 16:12:16 18° 37° (NE) 16:15:15 436.775 MHz
TMSAT-1 24 Jul 16:16:21 16:20:38 25° 267° (W) 16:24:56 436.925 FM
SO-50 24 Jul 16:23:07 16:25:17 13° 330° (NNW) 16:27:28 436.795 FM
Gurwin Techsat 1B 24 Jul 16:40:37 16:42:17 11° 273° (W) 16:43:57 435.225 FM
KITSAT 1 24 Jul 16:42:22 16:50:27 76° 241° (WSW) 16:58:28 435.175 FM
Uosat F 24 Jul 16:55:46 17:00:27 39° 262° (W) 17:05:11 435.120 FM
UOSAT-12 24 Jul 17:08:17 17:12:29 33° 315° (NW) 17:16:46 437.025 FM, 437.400 FM
JAS-1B 24 Jul 17:11:55 17:16:17 14° 282° (WNW) 17:20:54 435.800 - 435.900 CW/SSB
RS-15 24 Jul 17:13:00 17:22:54 37° 329° (NNW) 17:32:48 29.354 - 29.394 USB, Beacon 29.352 USB
JAS-2 24 Jul 17:17:34 17:24:37 39° 65° (ENE) 17:31:20 435.800 - 435.900 CW/SSB, 435.910 FM
OPAL 24 Jul 17:27:50 17:32:51 68° 289° (WNW) 17:37:54 ?
Hamsat 24 Jul 17:42:59 17:47:01 51° 73° (ENE) 17:51:06 145.90 MHz
Saudisat 1A 24 Jul 17:48:00 17:52:26 81° 237° (WSW) 17:56:49 436.775 MHz
AO-7 24 Jul 17:53:29 18:00:07 26° 267° (W) 18:06:49 29.400 - 29.500 MHz
SO-67 24 Jul 18:21:39 18:24:06 18° 67° (ENE) 18:26:34 435.3500 MHz FM
KITSAT 1 24 Jul 18:40:12 18:44:29 16° 261° (W) 18:48:46 435.175 FM
JAS-2 24 Jul 19:01:48 19:09:24 52° 262° (W) 19:16:42 435.800 - 435.900 CW/SSB, 435.910 FM
OPAL 24 Jul 19:09:57 19:10:50 10° 307° (NW) 19:11:43 ?
Hamsat 24 Jul 19:20:58 19:23:18 15° 270° (W) 19:25:40 145.90 MHz
RS-15 24 Jul 19:30:55 19:39:32 25° 4° (N) 19:48:13 29.354 - 29.394 USB, Beacon 29.352 USB
STRAND 1 24 Jul 19:42:59 19:48:07 72° 103° (ESE) 19:53:12 ?
SO-67 24 Jul 19:53:59 19:57:00 28° 264° (W) 20:00:03 435.3500 MHz FM
HO-68 24 Jul 20:02:06 20:08:35 39° 62° (ENE) 20:15:05 435.675 MHz FM
Oscar 11 24 Jul 20:28:41 20:30:50 14° 61° (ENE) 20:32:58 145.825 FM, Beacon 2401.500 USB
UKube-1 24 Jul 21:11:41 21:16:03 76° 74° (ENE) 21:20:26 145.840 MHz, 145.915 MHz
STRAND 1 24 Jul 21:23:35 21:26:43 17° 301° (WNW) 21:29:51 ?
SO-50 24 Jul 21:29:16 21:33:24 29° 43° (NE) 21:37:34 436.795 FM
RS-15 24 Jul 21:45:20 21:55:42 44° 37° (NE) 22:06:19 29.354 - 29.394 USB, Beacon 29.352 USB
HO-68 24 Jul 21:49:21 21:56:10 46° 261° (W) 22:03:01 435.675 MHz FM
Oscar 11 24 Jul 22:02:13 22:06:30 66° 259° (WSW) 22:10:48 145.825 FM, Beacon 2401.500 USB
FUNcube-1 24 Jul 22:10:31 22:14:48 57° 73° (ENE) 22:19:00 145.950 - 145.970 MHz USB
UOSAT-12 24 Jul 22:17:24 22:19:18 12° 28° (NNE) 22:21:11 437.025 FM, 437.400 FM
